STARLINK-1498 (45782 NORAD) Tracking and Keplerian Element Data

This shows tracking and keplerian element data for the satellite.

Feedback or suggestion? Click here.




ElementValue
Catalog45782
NameSTARLINK-1498
Epoch Orbit444
Epoch Day186.50001157
Epoch Year2020
RAAN192.6366
Inclination53
Eccentricity0.0001452
Argument of Perigee81.0834
Mean Anonmoly156.1741
Mean Motion15.62718557
Decay Rate0.00052131
L11 45782U 20038BE 20186.50001157 .00052131 00000-0 57226-3 0 9992
L22 45782 53.0000 192.6366 0001452 81.0834 156.1741 15.62718557 4449

Live tracking and technical data element details for STARLINK-1498 (NORAD 45782). STARLINK-1498 can be tracked NOW for your location showing map with azimuth and elevation plus other details from your city location.

Track the satellite on the map from your city or location and see movement details for azimuth, elevation, latitude, longitude, range, height, and movement on the map or in text.







IsCatalogInMostPopularTable: catalog: 45782, numindb: 5
Update: records affected: 1



GetName: 45782 STARLINK-1498

Hit Count: updated at: Sun, 05 Jul 2020 17:32:24 GMT